Estación Meteorológica Peña el Pijo (Robertgarden) [ 07/15/20 07:20:03 CEST ]

Fecha Hora Presion(HPa) Temp (°C) Humedad % Rocio (°C) Viento ( m/s) Direccion Lluvia 1Hora(mm) Lluvia 24H(mm) LLuvia Total(mm)
2020-May-06 01:09:05 1009.700 - - - - W     39.88
2020-May-06 02:09:17 1009.100 - - - - W     39.88
2020-May-06 03:08:59 1008.600 - - - - W     39.88
2020-May-06 04:09:09 1008.700 - - - - W     39.88
2020-May-06 05:09:10 1008.900 - - - - W     39.88
2020-May-06 06:09:18 1008.700 - - - - W     39.88
2020-May-06 07:10:39 1008.700 - - - - W     39.88
2020-May-06 08:09:21 1009.400 - - - - W     39.88
2020-May-06 09:09:27 1009.200 - - - - W     39.88
2020-May-06 10:09:55 1009.300 - - - - W     39.88
2020-May-06 11:09:19 1009.100 - - - - W     39.88
2020-May-06 12:09:06 1009.200 - - - - W     39.88
2020-May-06 13:09:19 1009.000 - - - - W     39.88
2020-May-06 14:09:23 1008.300 - - - - W     39.88
2020-May-06 15:09:27 1008.200 - - - - W     39.88
2020-May-06 16:09:13 1007.800 - - - - W     39.88
2020-May-06 17:09:15 1007.600 - - - - W     39.88
2020-May-06 18:09:26 1007.700 - - - - W     39.88
2020-May-06 19:09:21 1007.900 - - - - W     39.88
2020-May-06 20:09:09 1008.300 - - - - W     39.88
2020-May-06 21:09:07 1008.700 - - - - W     39.88
2020-May-06 22:09:21 1009.400 - - - - W     39.88
2020-May-06 23:08:54 1010.000 - - - - W     39.88

Temperatura Máxima:    Temperatura Mínima:
Presión Máxima:1010.000 Hpa    Presión Mínima:1007.600 Hpa


Volver